Weather in Richky

Ukraine / Sumi District     51°07′08″N   34°29′49″E
temp.,
°C
wind,
m/s
gust,
m/s
humid.,
%
clouds,
%
prec.,
mm/h
press.,
hPa
HPBL,
m
27 october, wed
wed2700:00+2ssw4126211 0.0 1028235
03:00+1ssw4126523 0.0 1027222
06:00+1ssw513675 0.0 1026268
09:00+3ssw614650 0.0 1025389
12:00+8sw710640 0.0 1024747
15:00+10wsw786134 0.0 10221056
18:00+7wsw3774100 0.0 1023202
21:00+6w357654 0.0 102394
28 october, thu
thu2800:00+4w35835 0.0 102471
03:00+4w3590100 0.0 1023103
06:00+4sw4990100 0.0 1022185
09:00+6sw51287100 0.8 1021338
12:00+9wsw61177100 0.1 1020536
15:00+9wnw51185100 0.3 1020528
18:00+9wnw4988100 0.1 1021368
21:00+8nw499295 0.1 1022342
29 october, fri
fri2900:00+6nw379643 0.0 1023122
03:00+5n36955 0.0 1025111
06:00+4nne34905 0.0 102765
09:00+5nne25834 0.0 1028138
12:00+10ene33662 0.0 1029535
15:00+11e22580 0.0 1029864
18:00+8e11740 0.0 103010
21:00+6ese33810 0.0 103124
30 october, sat
sat3000:00+5sse34900 0.0 103263
03:00+4sse34910 0.0 103259
06:00+4sse34920 0.0 103247
09:00+5sse36895 0.0 1033147
12:00+10sse45661 0.0 1033485
15:00+12s34570 0.0 1032766
18:00+8sse33723 0.0 103235
21:00+7sse34750 0.0 103248
31 october, sun
sun3100:00+6sse34750 0.0 103249
03:00+5sse33780 0.0 103234
05:00+4sse34810 0.0 103243
08:00+5se36780 0.0 1032143
11:00+10sse46590 0.0 1031508
14:00+12se45520 0.0 1028755
17:00+8se37650 0.0 102899
20:00+6ese48710 0.0 1027129